Regional Weather Roundup
Issued by NWS

Home | Current Version | Previous Version | Graphics & Text | Print | Product List | Glossary On
Versions: 1 2 3 4 5 6 7 8 9 10 11 12 13 14 15 16 17 18 19 20 21 22 23 24 25 26 27 28 29 30 31 32 33 34 35 36 37 38 39 40 41 42 43 44 45 46 47 48 49 50
000
ASUS45 KSLC 181110
RWRUT

UTAH REGIONAL WEATHER ROUNDUP
NATIONAL WEATHER SERVICE SALT LAKE CITY UT
400 AM MST MON DEC 18 2017

UTZ001>011-023>025-181200-

NORTHERN UTAH

CITY           SKY/WX    TMP DP  RH WIND       PRES   REMARKS
BRIGHAM CITY   CLOUDY    30  23  77 CALM      30.28F
HILL AFB       CLOUDY    24  19  80 E7        30.25F WCI  16
LOGAN          CLOUDY    33  23  66 N3        30.26S
OGDEN          CLOUDY    25  19  78 S6        30.26S WCI  18
SALT LAKE CITY PTCLDY    29  22  75 SE7       30.27F WCI  22
TOOELE VALLEY  PTCLDY    23  19  86 S5        30.27F WCI  17
WENDOVER       MOCLDY    23  17  78 CALM      30.27F
HEBER CITY       N/A     14  12  92 CALM      30.23S
WEST JORDAN    PTCLDY    25  23  93 S8        30.27F WCI  16

$$

UTZ011>015-024>027-181200-

CENTRAL/NORTHEAST UTAH

CITY           SKY/WX    TMP DP  RH WIND       PRES   REMARKS
PROVO AIRPORT  PTCLDY    20  17  88 SE3       30.30R
MOAB/CANYONLAN MOCLDY    17   8  67 CALM      30.19S
DELTA          MOCLDY    16  14  93 NE6       30.27S WCI   7
PRICE          PTCLDY    23  13  65 E3        30.15F
ROOSEVELT      CLOUDY    19  12  73 CALM      30.23S
VERNAL         CLOUDY    16  11  80 CALM      30.20S

$$

UTZ013>016-019>022-027-181200-

SOUTHERN UTAH

CITY           SKY/WX    TMP DP  RH WIND       PRES   REMARKS
BRYCE CANYON   PTCLDY     4   1  88 W3        30.19S
CEDAR CITY     PTCLDY    12  10  92 CALM      30.22S
MILFORD        PTCLDY    13  10  88 SW6       30.25S WCI   4
ST GEORGE      MOSUNNY   30  18  60 S7        30.22F WCI  23
HANKSVILLE     MOCLDY    14   5  67 CALM      30.24R
BLANDING         N/A     20   5  52 CALM      30.22S

$$

REGIONAL REPORTS     COLORADO/ARIZONA

CITY           SKY/WX    TMP DP  RH WIND       PRES   REMARKS
CRAIG, CO      CLOUDY    17  13  84 CALM      30.17F
GRAND JUNCTION CLOUDY    20  10  65 SE8       30.20F WCI  10
RIFLE, CO      CLOUDY    15   9  76 N5        30.23S WCI   8
MONTROSE, CO   CLOUDY    16   5  62 SE7       30.24R WCI   6
CORTEZ, CO     CLOUDY    13   3  64 E8        30.16S WCI   2
COLORADO CITY    N/A     12   9  85 SE6       30.20F WCI   3
PAGE, AZ       PTCLDY    31  16  54 NW3       30.18R
GRAND CANYON   MOCLDY    13   3  64 NE5       30.16S WCI   5
KINGMAN, AZ    CLEAR     32  17  54 E10       30.15S WCI  24
FLAGSTAFF, AZ  PTCLDY    16   7  67 CALM      30.12R

$$

REGIONAL REPORTS    NEVADA/IDAHO/WYOMING

CITY           SKY/WX    TMP DP  RH WIND       PRES   REMARKS
LAS VEGAS, NV  PTCLDY    44  16  32 N6        30.19R
ELY, NY        CLEAR     11   7  84 S10       30.22F WCI  -3
ELKO, NV       PTCLDY    19  14  81 CALM      30.25S
POCATELLO, ID  CLOUDY    33  21  61 S14       30.20F WCI  23
BURLEY, ID     CLOUDY    31  23  72 E5        30.20F WCI  26
FORT BRIDGER,    N/A     26  10  52 W17       30.15R WCI  13
EVANSTON, WY   CLOUDY    18  14  84 SW12      30.16S WCI   5
ROCK SPRINGS,  CLOUDY    23  10  57 W28       30.11R WCI   6

$$



USA.gov is the U.S. government's official web portal to all federal, state and local government web resources and services.